Location: *
(49.2333°S, 177.3500°W)
Time: 20:02:06
(UTC+00:00)

Daily predictions for brighter satellites

Satellite Brightness Start Highest point End
(mag) Time Altitude Azimuth Time Altitude Azimuth Time Altitude Azimuth
Resurs 1-4 Rocket 4.4 12:23:48 21° S 12:23:48 21° S 12:25:40 10° S
ATLAS 3B R/B 3.9 12:23:02 10° SW 12:27:23 37° SSW 12:27:23 37° SSW
Cosmos 2263 Rocket 4.4 12:37:08 10° SSW 12:38:57 20° S 12:38:57 20° S
CZ-2D R/B 4.3 12:46:08 23° S 12:46:08 23° S 12:48:07 10° S
USA 234 4.2 12:39:54 10° ESE 12:45:07 43° SSE 12:45:07 43° SSE
CENTAUR R/B 4.4 12:45:13 10° SW 12:50:41 25° SSE 12:55:39 10° ESE
Lacrosse 5 4.2 13:13:41 21° SE 13:13:41 21° SE 13:15:32 10° SE
Okean O Rocket 4.2 13:35:06 18° ESE 13:35:06 18° ESE 13:38:11 10° SSE
Cosmos 2322 Rocket 3.3 13:43:59 41° SE 13:43:59 41° SE 13:47:44 10° SSE
ADEOS II 3.2 13:51:45 41° SE 13:51:45 41° SE 13:55:49 10° S
Cosmos 2360 Rocket 3.4 13:55:16 36° E 13:55:16 36° E 13:59:44 10° SE
Cosmos 1980 Rocket 3.5 13:57:32 34° SSW 13:57:32 34° SSW 14:01:18 10° SSE
Cosmos 1697 Rocket 4.3 13:58:06 26° SSW 13:58:06 26° SSW 14:01:37 10° SSE
SL-16 R/B 4.3 13:55:20 10° SE 14:00:32 26° E 14:03:16 19° NE
ATLAS CENTAUR R/B 3.9 14:13:19 51° WSW 14:15:02 61° SSW 14:32:32 10° ESE
SL-16 R/B 2.7 14:17:26 54° S 14:17:26 54° S 14:21:59 10° SSE
Cosmos 1844 Rocket 3.2 14:14:16 10° SSW 14:19:50 56° SE 14:25:22 10° NE
ATLAS 2AS CENTAUR R/B 2.6 14:28:32 62° SSW 14:28:32 62° SSW 14:34:13 10° SE
USA 234 3.9 14:22:11 10° E 14:28:32 52° SSE 14:32:29 24° SW
NOSS 3-4 (A) 4.4 14:38:57 40° N 14:41:25 54° ENE 14:48:49 10° SE
NOSS 3-4 (C) 4.4 14:39:02 40° N 14:41:32 54° ENE 14:48:55 10° SE
CENTAUR R/B 2.9 14:36:26 10° SW 14:42:42 56° SE 14:48:20 10° ENE
Cosmos 1452 Rocket 4.5 14:44:30 37° SSW 14:44:30 37° SSW 14:48:32 10° SSE
Cosmos 1908 Rocket 4.3 14:47:38 51° SSE 14:47:38 51° SSE 14:51:02 10° S
Cosmos 1844 3.8 14:46:03 10° SSW 14:51:45 73° ESE 14:57:20 10° NE
Lacrosse 5 3.2 14:52:51 28° SSW 14:54:30 35° S 14:59:14 10° ESE
PAYLOAD B 4.1 14:53:35 62° N 14:54:34 87° WNW 15:00:14 10° SSW
Nadezhda 4 Rocket 4.0 14:53:17 48° N 14:55:10 80° E 15:01:29 10° S
Sich 1 Rocket 4.0 14:56:26 57° S 14:56:26 57° S 15:00:05 10° S
Cosmos 2322 3.6 14:57:52 72° NNW 14:58:29 89° NE 15:04:16 10° SSE
Aureole 2 Rocket 3.8 14:59:00 44° ENE 14:59:05 44° ENE 15:03:06 10° SE
Cosmos 2219 Rocket 3.4 15:00:04 22° NNE 15:03:06 38° ENE 15:08:20 10° SE
Cosmos 2237 4.2 15:07:57 58° NNW 15:09:09 86° ENE 15:14:57 10° SSE
Meteor 2-20 4.4 15:08:33 44° NNW 15:10:42 87° W 15:16:58 10° S
Meteor 1-18 Rocket 4.2 15:05:10 10° SSW 15:10:51 66° W 15:11:44 57° NW
Okean O Rocket 2.4 15:12:32 39° SW 15:12:32 39° SW 15:15:30 10° SSW
Cosmos 1241 Rocket 4.4 15:14:13 52° WNW 15:15:46 73° SW 15:22:14 10° SE
Tiangong 2 3.6 15:19:33 16° NE 15:19:33 16° NE 15:20:35 10° ENE
COSMOS 2455 3.6 15:13:41 10° SSW 15:19:39 53° SE 15:25:33 10° NE
RESURS DK-1 3.2 15:18:54 38° NNE 15:19:52 45° ENE 15:23:54 10° SE
ASTEX 1 3.3 15:18:45 40° N 15:20:38 82° W 15:25:47 10° S
Meteor 1-25 Rocket 4.2 15:19:36 47° NNW 15:21:19 74° WSW 15:27:15 10° S
Cosmos 1782 Rocket 3.5 15:21:59 69° WSW 15:21:59 69° WSW 15:26:27 10° S
Cosmos 1331 Rocket 3.9 15:21:41 54° NNW 15:22:54 84° WSW 15:28:11 10° SSE
Meteor PRIRODA 3.7 15:23:48 72° SSW 15:23:48 72° SSW 15:27:19 10° SSW
Cosmos 2084 Rocket 3.9 15:24:11 51° WSW 15:24:34 53° SW 15:29:18 10° SE
Cosmos 1302 Rocket 4.4 15:22:46 29° N 15:25:25 63° ENE 15:30:43 10° SSE
Cosmos 1975 Rocket 3.8 15:21:23 10° SSW 15:24:36 39° SW 15:24:36 39° SW
Cosmos 2322 Rocket 3.4 15:25:48 26° WSW 15:26:36 27° SW 15:31:28 10° SSE
IRS-1C Rocket 4.1 15:25:51 37° NNW 15:27:50 60° WNW 15:33:09 10° SSW
Cosmos 1354 Rocket 4.4 15:22:35 10° SSW 15:27:54 66° ESE 15:33:10 10° NNE
Cosmos 1503 Rocket 4.3 15:24:38 10° SSW 15:29:54 68° ESE 15:35:09 10° NNE
ADEOS II 3.5 15:32:41 23° WSW 15:32:41 23° WSW 15:35:16 10° SSW
SJ-6F 4.5 15:27:22 10° NNE 15:31:31 78° ESE 15:35:41 10° S
Meteor 2-20 Rocket 4.4 15:28:18 29° NNW 15:31:40 78° W 15:37:57 10° S
Cosmos 2333 4.2 15:29:24 36° NNW 15:31:57 86° ENE 15:37:51 10° SSE
Cosmos 1602 4.0 15:30:40 39° NNE 15:32:00 69° E 15:35:58 10° SSE
USA 267 3.7 15:27:42 10° ESE 15:34:10 55° NE 15:38:11 24° NNW
NOAA 6 4.4 15:30:37 10° NNE 15:35:47 66° ESE 15:41:00 10° S
Cosmos 2278 Rocket 2.3 15:30:03 10° SSW 15:35:48 81° ESE 15:41:30 10° NNE
Cosmos 2360 Rocket 2.7 15:37:02 37° W 15:38:26 43° SW 15:43:55 10° SSE
Cosmos 1110 Rocket 4.1 15:37:54 43° WNW 15:39:21 57° WSW 15:44:36 10° SSE
Timation 1 Rocket 4.2 15:33:37 10° SSW 15:39:42 82° WNW 15:45:41 10° NNE
Cosmos 1980 Rocket 4.3 15:39:17 11° SW 15:41:30 13° SSW 15:44:10 10° S
COSMOS 2428 2.7 15:39:00 35° NW 15:41:33 78° WSW 15:47:22 10° SSE
CZ-2C R/B 4.3 15:38:30 10° NE 15:42:58 33° ESE 15:47:36 10° S
Cosmos 2151 Rocket 3.8 15:40:27 17° N 15:43:55 72° E 15:48:26 10° SSE
CZ-4B R/B 4.1 15:39:57 12° N 15:44:03 67° WNW 15:48:39 10° SSW
SL-16 R/B 2.6 15:38:21 10° S 15:44:38 66° WSW 15:48:22 25° NW
CZ-4B R/B 3.6 15:43:31 33° NW 15:45:11 41° W 15:50:33 10° SSW
Cosmos 2333 Rocket 2.5 15:44:48 16° NNW 15:49:24 68° ENE 15:55:11 10° SSE
SL-08 R/B 4.2 15:46:01 10° S 15:50:12 31° WSW 15:50:43 30° WSW
Meteor 1-13 Rocket 4.2 15:45:26 10° SSW 15:51:12 73° W 15:57:00 10° N
Cosmos 1536 Rocket 3.4 15:46:45 10° SSW 15:51:15 81° W 15:55:39 10° N
UNK 4.2 15:47:56 10° S 15:52:19 41° WSW 15:53:21 35° W
Cosmos 1092 Rocket 4.0 15:48:51 24° NNW 15:52:38 58° WSW 15:58:48 10° S
Meteor 1-31 Rocket 2.9 15:52:14 44° NW 15:52:48 48° W 15:56:36 10° SSW
Cosmos 2297 4.4 15:52:47 10° SSW 15:58:29 57° ESE 16:04:03 10° NE
SL-16 R/B 3.9 15:59:18 16° WSW 16:01:25 19° SW 16:05:24 10° S
Cosmos 1844 Rocket 3.5 15:58:41 10° SW 16:03:24 28° WNW 16:08:07 10° NNW
Cosmos 2026 Rocket 3.9 15:58:28 10° NNW 16:04:37 74° W 16:10:57 10° S
Cosmos 1553 Rocket 4.0 15:59:22 10° S 16:05:55 86° W 16:12:18 10° N
Okean-O 2.6 16:02:59 10° N 16:07:26 65° WNW 16:11:57 10° SSW
Cosmos 1633 3.7 16:08:23 25° WSW 16:08:23 25° WSW 16:11:21 10° SSW
USA 234 3.2 16:04:42 10° NE 16:11:18 85° NNW 16:17:58 10° WSW
Okean 2 Rocket 3.8 16:11:06 27° WNW 16:12:35 33° WSW 16:16:44 10° S
Cosmos 1300 Rocket 3.6 16:09:18 10° N 16:13:43 86° E 16:18:11 10° S
Gblst 52 Del rocket 4.4 16:15:57 20° WNW 16:20:06 79° NNE 16:26:44 10° ESE
ATLAS 2AS CENTAUR R/B 3.8 16:15:57 13° WSW 16:20:09 25° SSW 16:25:07 10° SE
Shenzhou-11 Module 3.7 16:21:17 19° NNW 16:21:50 20° NNW 16:24:13 10° NE
USA 161 1.0 16:20:13 10° SSE 16:22:08 57° ENE 16:23:09 21° N
SL-16 R/B 3.7 16:17:30 10° N 16:22:43 38° ENE 16:27:59 10° SE
S3M 3.9 16:17:18 10° SSW 16:23:28 71° W 16:29:36 10° N
BREEZE-M DEB (TANK) 3.8 16:21:45 20° W 16:24:48 88° S 16:40:27 10° E
PAYLOAD A 3.8 16:23:38 10° N 16:28:23 78° WNW 16:33:21 10° SSW
Cosmos 1992 Rocket 4.2 16:26:00 10° NNW 16:31:14 78° ENE 16:36:32 10° SSE
Meteor 2-4 Rocket 3.9 16:26:42 10° SSW 16:31:54 45° W 16:36:59 10° NNW
NOSS 3-4 (A) 4.3 16:26:25 16° WNW 16:32:37 54° SW 16:40:00 10° SE
NOSS 3-4 (C) 4.3 16:26:29 16° WNW 16:32:43 54° SW 16:40:06 10° SE
CENTAUR R/B 2.8 16:27:34 10° SW 16:33:00 35° WNW 16:38:01 10° N
Aureole 2 Rocket 4.2 16:32:30 18° W 16:34:25 24° SW 16:37:53 10° S
Cosmos 2237 Rocket 2.2 16:29:07 10° NNW 16:34:50 84° WSW 16:40:37 10° SSE
Cosmos 1025 Rocket 3.0 16:32:11 10° SSW 16:36:38 79° W 16:40:59 10° N
Lacrosse 5 2.4 16:33:05 10° SW 16:38:13 62° SSE 16:43:20 10° ENE
IDEFIX/ARIANE 42P 2.5 16:33:13 10° N 16:38:30 74° WNW 16:43:49 10° SSW
MSX 3.9 16:40:42 10° NNE 16:46:33 90° WSW 16:52:28 10° SSW
Cosmos 2219 Rocket 2.7 16:41:49 11° WNW 16:47:00 44° SW 16:52:29 10° SSE
CZ-4 R/B 2.8 16:43:56 10° NE 16:47:43 42° ESE 16:51:28 10° S
Cosmos 1980 3.8 16:44:19 10° NW 16:49:57 63° WSW 16:55:40 10° SSE
Cosmos 1536 3.5 16:46:50 10° NW 16:50:41 37° WSW 16:54:36 10° S
Cosmos 405 3.0 16:47:27 10° NNW 16:51:01 82° W 16:54:41 10° S
Meteor 1-11 Rocket 4.3 16:47:26 10° NW 16:53:06 43° WSW 16:58:52 10° S
Tiangong 2 2.9 16:51:54 11° WNW 16:54:11 21° NNW 16:56:44 10° NE
Cosmos 1975 3.8 16:52:36 10° N 16:56:37 54° E 17:00:41 10° SSE
CSL-04 Rocket 3.7 16:52:39 10° NNE 16:58:00 85° WNW 17:03:30 10° SSW
RESURS DK-1 3.6 16:54:49 11° WNW 16:58:08 25° SW 17:01:40 10° S
Ariane Rocket 3.0 16:55:48 10° NNE 17:00:57 85° WNW 17:06:10 10° SSW
COSMOS 2455 3.4 16:59:58 10° SW 17:05:25 36° WNW 17:10:48 10° N
BREEZE-M DEB (TANK) 2.9 17:02:27 10° W 17:06:13 34° NNW 17:07:58 10° NE
BREEZE-M DEB (TANK) 3.3 16:58:51 10° WSW 17:07:25 81° NNW 17:10:17 10° ENE
Cosmos 1238 Rocket 4.0 17:02:32 10° S 17:07:46 79° E 17:13:58 10° NNE
Cosmos 1515 4.2 17:04:50 10° SSW 17:08:30 39° W 17:12:06 10° NNW
